Location: *
(35.2348°S, 91.3916°E)
Time: 07:17:48
(UTC+00:00)

OAO 3 Rocket - Pass Details

Date: 23 October 2019
Orbit: 629 x 683 km, 35.0° (Epoch: 18 November)

Event Time Altitude Azimuth Distance (km) Brightness Sun altitude
Exits shadow 22:18:17 - 266° (W) 2,133 5.3 -9.2°
Reaches altitude 10° 22:18:27 10° 266° (W) 2,071 5.2 -9.2°
Maximum altitude 22:23:17 85° 355° (N) 657 3.2 -8.2°
Drops below altitude 10° 22:28:02 10° 82° (E) 2,035 6.8 -7.3°
Sets 22:30:22 0° 82° (E) 2,936 7.8 -6.9°
